Tiempo cada hora Muruh

Hoy, 22 Octubre, Jueves

Tiempo Temperatura Precipitaciones Viento Presión Humedad
00:00 +3°C° 0 mm 2 mps 618 mmHg 70%
01:00 +3°C° 0 mm 2 mps 617 mmHg 71%
02:00 +3°C° 0 mm 2 mps 617 mmHg 71%
03:00 +2°C° 0 mm 3 mps 617 mmHg 70%
04:00 +3°C° 0 mm 2 mps 617 mmHg 64%
05:00 +4°C° 0 mm 2 mps 617 mmHg 58%
06:00 +4°C° 0 mm 2 mps 617 mmHg 52%
07:00 +7°C° 0 mm 1 mps 617 mmHg 48%
08:00 +8°C° 0 mm 1 mps 618 mmHg 44%
09:00 +9°C° 0 mm 0 mps 619 mmHg 39%
10:00 +11°C° 0 mm 1 mps 619 mmHg 38%
11:00 +12°C° 0 mm 1 mps 619 mmHg 37%
12:00 +13°C° 0 mm 2 mps 619 mmHg 36%
13:00 +13°C° 0 mm 2 mps 619 mmHg 38%
14:00 +13°C° 0 mm 2 mps 619 mmHg 40%
15:00 +12°C° 0 mm 2 mps 618 mmHg 42%
16:00 +11°C° 0 mm 1 mps 618 mmHg 50%
17:00 +9°C° 0 mm 1 mps 617 mmHg 59%
18:00 +6°C° 0 mm 0 mps 617 mmHg 68%
19:00 +6°C° 0 mm 0 mps 617 mmHg 67%
20:00 +6°C° 0 mm 0 mps 617 mmHg 67%
21:00 +6°C° 0 mm 0 mps 617 mmHg 66%
22:00 +6°C° 0 mm 0 mps 617 mmHg 65%
23:00 +6°C° 0 mm 0 mps 617 mmHg 63%

Mañana, 23 Octubre, Viernes

Tiempo Temperatura Precipitaciones Viento Presión Humedad
00:00 +6°C° 0 mm 0 mps 616 mmHg 62%
01:00 +7°C° 0 mm 1 mps 616 mmHg 60%
02:00 +6°C° 0 mm 1 mps 616 mmHg 57%
03:00 +6°C° 0 mm 1 mps 616 mmHg 55%
04:00 +6°C° 0 mm 1 mps 616 mmHg 55%
05:00 +6°C° 0 mm 1 mps 616 mmHg 54%
06:00 +6°C° 0 mm 1 mps 616 mmHg 54%
07:00 +7°C° 0 mm 1 mps 617 mmHg 51%
08:00 +9°C° 0 mm 1 mps 618 mmHg 47%
09:00 +10°C° 0 mm 1 mps 619 mmHg 44%
10:00 +11°C° 0 mm 1 mps 619 mmHg 43%
11:00 +12°C° 0 mm 2 mps 619 mmHg 42%
12:00 +13°C° 0 mm 2 mps 619 mmHg 41%
13:00 +13°C° 0 mm 2 mps 619 mmHg 42%
14:00 +13°C° 0 mm 2 mps 619 mmHg 43%
15:00 +13°C° 0 mm 2 mps 619 mmHg 44%
16:00 +12°C° 0 mm 1 mps 619 mmHg 49%
17:00 +10°C° 0 mm 1 mps 618 mmHg 54%
18:00 +9°C° 0 mm 1 mps 618 mmHg 58%
19:00 +9°C° 0 mm 1 mps 617 mmHg 56%
20:00 +8°C° 0 mm 1 mps 617 mmHg 54%
21:00 +8°C° 0 mm 1 mps 617 mmHg 52%
22:00 +8°C° 0 mm 1 mps 617 mmHg 51%
23:00 +7°C° 0 mm 2 mps 617 mmHg 50%

Pasado mañana, 24 Octubre, Sábado

Tiempo Temperatura Precipitaciones Viento Presión Humedad
00:00 +7°C° 0 mm 2 mps 617 mmHg 48%
01:00 +7°C° 0 mm 2 mps 617 mmHg 49%
02:00 +7°C° 0 mm 2 mps 616 mmHg 49%
03:00 +7°C° 0 mm 2 mps 616 mmHg 49%
04:00 +7°C° 0 mm 2 mps 616 mmHg 48%
05:00 +7°C° 0 mm 2 mps 616 mmHg 47%
06:00 +8°C° 0 mm 2 mps 615 mmHg 46%
07:00 +10°C° 0 mm 2 mps 616 mmHg 43%
08:00 +13°C° 0 mm 1 mps 617 mmHg 40%
09:00 +15°C° 0 mm 1 mps 618 mmHg 36%
10:00 +16°C° 0 mm 1 mps 618 mmHg 34%
11:00 +19°C° 0 mm 1 mps 618 mmHg 33%
12:00 +20°C° 0 mm 1 mps 619 mmHg 31%
13:00 +20°C° 0 mm 1 mps 618 mmHg 33%
14:00 +19°C° 0 mm 1 mps 618 mmHg 35%
15:00 +19°C° 0 mm 1 mps 618 mmHg 37%
16:00 +16°C° 0 mm 1 mps 617 mmHg 43%
17:00 +14°C° 0 mm 1 mps 616 mmHg 50%
18:00 +12°C° 0 mm 1 mps 616 mmHg 56%
19:00 +12°C° 0 mm 1 mps 616 mmHg 55%
20:00 +11°C° 0 mm 1 mps 616 mmHg 55%
21:00 +10°C° 0 mm 2 mps 616 mmHg 54%
22:00 +10°C° 0 mm 2 mps 615 mmHg 52%
23:00 +10°C° 0 mm 2 mps 615 mmHg 50%

, 25 Octubre, Domingo

Tiempo Temperatura Precipitaciones Viento Presión Humedad
00:00 +10°C° 0 mm 2 mps 615 mmHg 48%
01:00 +10°C° 0 mm 3 mps 615 mmHg 48%
02:00 +9°C° 0 mm 3 mps 614 mmHg 48%
03:00 +9°C° 0 mm 3 mps 614 mmHg 47%
04:00 +9°C° 0 mm 3 mps 614 mmHg 48%
05:00 +9°C° 0 mm 3 mps 614 mmHg 48%
06:00 +9°C° 0 mm 3 mps 614 mmHg 49%
07:00 +12°C° 0 mm 2 mps 615 mmHg 45%
08:00 +14°C° 0 mm 2 mps 616 mmHg 42%
09:00 +16°C° 0 mm 1 mps 616 mmHg 39%
10:00 +17°C° 0 mm 2 mps 617 mmHg 37%
11:00 +17°C° 0 mm 2 mps 617 mmHg 34%
12:00 +18°C° 0 mm 2 mps 617 mmHg 31%
13:00 +18°C° 0 mm 2 mps 617 mmHg 33%
14:00 +18°C° 0 mm 2 mps 616 mmHg 35%
15:00 +17°C° 0 mm 2 mps 616 mmHg 37%
16:00 +15°C° 0 mm 2 mps 615 mmHg 43%
17:00 +13°C° 0 mm 1 mps 615 mmHg 49%
18:00 +12°C° 0 mm 1 mps 614 mmHg 55%
19:00 +11°C° 0 mm 1 mps 614 mmHg 53%
20:00 +11°C° 0 mm 1 mps 614 mmHg 51%
21:00 +10°C° 0 mm 1 mps 614 mmHg 49%
22:00 +10°C° 0 mm 1 mps 614 mmHg 48%
23:00 +10°C° 0 mm 1 mps 614 mmHg 48%

25 Octubre, Domingo

Tiempo Temperatura Precipitaciones Viento Presión Humedad
00:00 +10°C° 0 mm 2 mps 615 mmHg 48%
01:00 +10°C° 0 mm 3 mps 615 mmHg 48%
02:00 +9°C° 0 mm 3 mps 614 mmHg 48%
03:00 +9°C° 0 mm 3 mps 614 mmHg 47%
04:00 +9°C° 0 mm 3 mps 614 mmHg 48%
05:00 +9°C° 0 mm 3 mps 614 mmHg 48%
06:00 +9°C° 0 mm 3 mps 614 mmHg 49%
07:00 +12°C° 0 mm 2 mps 615 mmHg 45%
08:00 +14°C° 0 mm 2 mps 616 mmHg 42%
09:00 +16°C° 0 mm 1 mps 616 mmHg 39%
10:00 +17°C° 0 mm 2 mps 617 mmHg 37%
11:00 +17°C° 0 mm 2 mps 617 mmHg 34%
12:00 +18°C° 0 mm 2 mps 617 mmHg 31%
13:00 +18°C° 0 mm 2 mps 617 mmHg 33%
14:00 +18°C° 0 mm 2 mps 616 mmHg 35%
15:00 +17°C° 0 mm 2 mps 616 mmHg 37%
16:00 +15°C° 0 mm 2 mps 615 mmHg 43%
17:00 +13°C° 0 mm 1 mps 615 mmHg 49%
18:00 +12°C° 0 mm 1 mps 614 mmHg 55%
19:00 +11°C° 0 mm 1 mps 614 mmHg 53%
20:00 +11°C° 0 mm 1 mps 614 mmHg 51%
21:00 +10°C° 0 mm 1 mps 614 mmHg 49%
22:00 +10°C° 0 mm 1 mps 614 mmHg 48%
23:00 +10°C° 0 mm 1 mps 614 mmHg 48%

26 Octubre, Lunes

Tiempo Temperatura Precipitaciones Viento Presión Humedad
00:00 +10°C° 0 mm 1 mps 614 mmHg 47%
01:00 +9°C° 0 mm 1 mps 614 mmHg 48%
02:00 +9°C° 0 mm 1 mps 614 mmHg 49%
03:00 +9°C° 0 mm 1 mps 614 mmHg 50%
04:00 +8°C° 0 mm 1 mps 614 mmHg 52%
05:00 +8°C° 0 mm 1 mps 614 mmHg 54%
06:00 +7°C° 0 mm 0 mps 614 mmHg 56%
07:00 +9°C° 0 mm 1 mps 615 mmHg 53%
08:00 +11°C° 0 mm 1 mps 616 mmHg 49%
09:00 +12°C° 0 mm 1 mps 617 mmHg 46%
10:00 +13°C° 0 mm 1 mps 617 mmHg 45%
11:00 +14°C° 0 mm 1 mps 617 mmHg 44%
12:00 +14°C° 0 mm 2 mps 617 mmHg 44%
13:00 +14°C° 0 mm 2 mps 617 mmHg 45%
14:00 +14°C° 0 mm 2 mps 617 mmHg 46%
15:00 +14°C° 0 mm 2 mps 617 mmHg 48%
16:00 +12°C° 0 mm 1 mps 617 mmHg 56%
17:00 +11°C° 0 mm 1 mps 616 mmHg 65%
18:00 +8°C° 0 mm 0 mps 616 mmHg 74%
19:00 +9°C° 0 mm 1 mps 616 mmHg 71%
20:00 +9°C° 0 mm 1 mps 616 mmHg 68%
21:00 +8°C° 0 mm 1 mps 616 mmHg 65%
22:00 +8°C° 0 mm 1 mps 616 mmHg 64%
23:00 +8°C° 0 mm 1 mps 616 mmHg 64%

27 Octubre, Martes

Tiempo Temperatura Precipitaciones Viento Presión Humedad
00:00 +6°C° 0 mm 2 mps 616 mmHg 64%
01:00 +6°C° 0 mm 2 mps 616 mmHg 64%
02:00 +6°C° 0 mm 2 mps 616 mmHg 63%
03:00 +6°C° 0 mm 2 mps 616 mmHg 63%
04:00 +6°C° 0 mm 2 mps 616 mmHg 62%
05:00 +7°C° 0 mm 1 mps 616 mmHg 61%
06:00 +6°C° 0 mm 1 mps 616 mmHg 60%
07:00 +8°C° 0 mm 1 mps 617 mmHg 56%
08:00 +10°C° 0 mm 1 mps 618 mmHg 51%
09:00 +11°C° 0 mm 1 mps 619 mmHg 46%
10:00 +12°C° 0 mm 1 mps 619 mmHg 45%
11:00 +13°C° 0 mm 1 mps 620 mmHg 44%
12:00 +14°C° 0 mm 2 mps 620 mmHg 43%
13:00 +14°C° 0 mm 2 mps 620 mmHg 46%
14:00 +13°C° 0 mm 2 mps 620 mmHg 50%
15:00 +13°C° 0 mm 2 mps 620 mmHg 53%
16:00 +12°C° 0 mm 1 mps 619 mmHg 64%
17:00 +10°C° 0 mm 1 mps 619 mmHg 75%
18:00 +8°C° 0 mm 1 mps 619 mmHg 86%
19:00 +8°C° 0 mm 1 mps 619 mmHg 84%
20:00 +8°C° 0 mm 1 mps 619 mmHg 81%
21:00 +8°C° 0 mm 1 mps 619 mmHg 78%
22:00 +7°C° 0 mm 2 mps 619 mmHg 76%
23:00 +6°C° 0 mm 2 mps 619 mmHg 74%
Mostrar más

Necesitamos Su Consentimiento

Meteoprog y nuestros Proveedores de Servicios pueden almacenar y acceder a sus datos personales como cookies, identificadores de dispositivo u otras tecnologías similares de su dispositivo y procesar dichos datos para personalizar contenido y anuncios, además de ofrecer funciones de redes sociales y analizar el tráfico.

  • Almacenar y/o acceder a información en su dispositivo

    Se puede almacenar o acceder a cookies, identificadores de dispositivo u otra información de su dispositivo para los fines anteriormente indicados.

  • Anuncios y contenido personalizados, medición de anuncios y contenido, percepciones del público, y desarrollo de productos

    Los anuncios y el contenido pueden personalizarse en base a su perfil. Se pueden añadir más datos para personalizar mejor los anuncios y contenidos. Se puede medir el rendimiento de los anuncios y contenidos. Se puede obtener la percepción sobre el público que ha visto los anuncios y contenidos. Dichos datos pueden usarse para desarrollar o mejorar la experiencia del usuario, sistemas y software.

Al hacer clic en ‘Estoy De Acuerdo’ usted permitirá el uso de las cookies, identificadores de dispositivo, balizas web u otras tecnologías similares indicadas. Su configuración puede cambiarse desde el navegador de su dispositivo.

Para ciertos fines, los intereses legítimos pueden ser considerados por encima del consentimiento. Puede leer más sobre ello en nuestra Política de Privacidad y Cookies.